Date String (YYYY-MM-DD hh:mm:ss) UTC,Instrument flags,Ambient pressure (hPa),Sample flow (lpm),Bypass flow (lpm),Sample temperature (°C),Ambient temperature (°C),ASC tube jacket temperature (°C),LED temperature (°C),Box temperature (°C),Sample RH (%),Span deviation,Mass concentration (μg/m³),Mass concentration (μg/m³),Mass concentration (μg/m³)
DateTimeUTC,F1_M11,P_M11,Q1_M11,Q2_M11,T1_M11,T2_M11,T3_M11,T4_M11,T5_M11,U1_M11,ZSPAN_M11,X0_M11,X2_M11,X1_M11
2021-08-29 18:00:00,,0832.3,5.01,0.00,29.7,26.2,00.0,38.8,31.0,30.1,0001.8,0022.61,0013.98,0012.88
2021-08-29 18:01:00,,0832.3,5.01,0.00,29.6,26.2,00.0,38.8,30.9,30.2,0001.8,0022.32,0013.99,0012.86
2021-08-29 18:02:00,,0832.2,5.00,0.00,29.5,26.6,00.0,38.7,31.0,30.0,0001.8,0022.45,0014.04,0012.89
2021-08-29 18:03:00,,0832.2,5.00,0.00,29.5,27.0,00.0,38.7,31.1,29.9,0001.7,0022.79,0014.09,0012.90
2021-08-29 18:04:00,,0832.1,4.99,0.00,29.5,27.4,00.0,38.7,31.2,29.9,0001.9,0022.87,0014.14,0012.93
2021-08-29 18:05:00,,0832.1,5.01,0.00,29.5,27.8,00.0,38.7,31.3,29.8,0001.9,0022.93,0014.18,0012.95
2021-08-29 18:06:00,,0832.1,4.99,0.00,29.6,28.1,00.0,38.7,31.4,30.1,0001.9,0023.04,0014.22,0012.95
2021-08-29 18:07:00,,0832.1,5.01,0.00,29.6,28.3,00.0,38.7,31.4,30.1,0002.0,0023.30,0014.22,0012.95
2021-08-29 18:08:00,,0832.1,5.01,0.00,29.6,28.5,00.0,38.7,31.5,30.0,0002.1,0023.39,0014.20,0012.91
2021-08-29 18:09:00,,0832.1,4.99,0.00,29.7,28.6,00.0,38.7,31.5,30.1,0002.0,0022.38,0014.19,0012.92
2021-08-29 18:10:00,,0832.1,4.99,0.00,29.7,28.8,00.0,38.7,31.6,30.1,0002.0,0022.06,0014.23,0012.96
2021-08-29 18:11:00,,0832.1,5.01,0.00,29.8,28.9,00.0,38.7,31.7,29.8,0002.1,0021.73,0014.24,0013.01
2021-08-29 18:12:00,,0832.1,5.00,0.00,29.8,29.0,00.0,38.8,31.7,29.5,0002.3,0021.80,0014.22,0013.09
2021-08-29 18:13:00,,0832.1,4.98,0.00,29.8,28.1,00.0,38.8,31.5,29.6,0002.5,0022.08,0014.31,0013.14
2021-08-29 18:14:00,,0832.1,5.01,0.00,29.7,26.4,00.0,38.7,31.0,30.0,0002.7,0021.71,0014.39,0013.18
2021-08-29 18:15:00,,0832.1,5.01,0.00,29.5,26.0,00.0,38.7,30.9,30.1,0002.6,0021.85,0014.47,0013.22
2021-08-29 18:16:00,,0832.1,4.99,0.00,29.5,26.3,00.0,38.7,30.9,30.1,0002.5,0024.18,0014.50,0013.27
2021-08-29 18:17:00,,0832.1,4.99,0.00,29.4,26.8,00.0,38.6,31.0,30.3,0002.5,0024.62,0014.57,0013.32
2021-08-29 18:18:00,,0832.1,5.01,0.00,29.4,27.2,00.0,38.6,31.1,30.1,0002.4,0024.27,0014.60,0013.36
2021-08-29 18:19:00,,0832.0,5.00,0.00,29.4,27.6,00.0,38.6,31.2,30.2,0002.0,0024.02,0014.66,0013.42
2021-08-29 18:20:00,,0832.0,5.01,0.00,29.5,27.9,00.0,38.6,31.2,30.6,0001.9,0024.42,0014.71,0013.45
2021-08-29 18:21:00,,0832.1,4.98,0.00,29.5,28.1,00.0,38.6,31.3,30.3,0001.9,0025.02,0014.74,0013.48
2021-08-29 18:22:00,,0832.1,5.00,0.00,29.5,28.3,00.0,38.6,31.4,29.9,0001.8,0025.10,0014.82,0013.52
2021-08-29 18:23:00,,0832.0,4.99,0.00,29.6,28.5,00.0,38.6,31.4,29.6,0001.6,0025.03,0014.88,0013.53
2021-08-29 18:24:00,,0832.0,5.00,0.00,29.6,28.6,00.0,38.6,31.5,29.8,0001.5,0024.71,0014.85,0013.56
2021-08-29 18:25:00,,0832.0,5.00,0.00,29.7,28.7,00.0,38.7,31.5,29.8,0001.6,0024.73,0014.82,0013.57
2021-08-29 18:26:00,,0832.0,5.00,0.00,29.7,28.8,00.0,38.7,31.6,29.8,0001.6,0024.66,0014.79,0013.59
2021-08-29 18:27:00,,0832.0,5.00,0.00,29.7,28.9,00.0,38.7,31.6,29.8,0001.8,0022.59,0014.83,0013.62
2021-08-29 18:28:00,,0832.0,5.00,0.00,29.8,28.9,00.0,38.7,31.7,29.4,0001.6,0022.46,0014.80,0013.61
2021-08-29 18:29:00,,0831.8,5.01,0.00,29.8,28.1,00.0,38.8,31.5,29.5,0001.5,0022.67,0014.76,0013.62
2021-08-29 18:30:00,,0831.7,5.01,0.00,29.6,26.5,00.0,38.7,31.0,29.8,0001.8,0022.90,0014.76,0013.63
2021-08-29 18:31:00,,0831.7,4.99,0.00,29.5,26.0,00.0,38.7,30.9,30.3,0001.9,0022.96,0014.79,0013.65
2021-08-29 18:32:00,,0831.7,5.00,0.00,29.5,26.3,00.0,38.7,30.9,30.2,0002.0,0023.33,0014.79,0013.65
2021-08-29 18:33:00,,0831.7,5.01,0.00,29.4,26.8,00.0,38.6,31.0,30.6,0002.0,0023.43,0014.74,0013.63
2021-08-29 18:34:00,,0831.7,4.99,0.00,29.4,27.2,00.0,38.6,31.1,30.3,0002.0,0023.70,0014.73,0013.65
2021-08-29 18:35:00,,0831.7,5.00,0.00,29.4,27.5,00.0,38.6,31.1,30.8,0001.8,0024.26,0014.71,0013.64
2021-08-29 18:36:00,,0831.7,5.00,0.00,29.4,27.8,00.0,38.6,31.2,30.9,0001.8,0025.03,0014.72,0013.66
2021-08-29 18:37:00,,0831.8,5.01,0.00,29.5,28.1,00.0,38.6,31.3,31.1,0001.7,0025.87,0014.71,0013.64
2021-08-29 18:38:00,,0831.7,5.01,0.00,29.5,28.3,00.0,38.6,31.3,30.4,0001.5,0026.46,0014.67,0013.62
2021-08-29 18:39:00,,0831.7,5.00,0.00,29.6,28.5,00.0,38.6,31.4,30.2,0001.8,0026.20,0014.71,0013.65
2021-08-29 18:40:00,,0831.7,5.00,0.00,29.6,28.6,00.0,38.6,31.5,30.2,0001.9,0026.13,0014.77,0013.66
2021-08-29 18:41:00,,0831.7,5.01,0.00,29.6,28.7,00.0,38.6,31.5,30.0,0001.7,0025.87,0014.80,0013.68
2021-08-29 18:42:00,,0831.7,4.99,0.00,29.7,28.8,00.0,38.7,31.6,29.9,0001.5,0025.97,0014.84,0013.70
2021-08-29 18:43:00,,0831.7,5.01,0.00,29.7,28.9,00.0,38.7,31.6,29.7,0001.4,0026.92,0014.87,0013.74
2021-08-29 18:44:00,,0831.6,5.00,0.00,29.7,29.0,00.0,38.7,31.6,30.0,0001.7,0027.83,0014.91,0013.79
2021-08-29 18:45:00,,0831.7,4.99,0.00,29.8,28.2,00.0,38.7,31.4,29.7,0001.8,0027.60,0014.93,0013.80
2021-08-29 18:46:00,,0831.6,5.01,0.00,29.6,26.6,00.0,38.7,31.1,30.0,0002.0,0027.25,0015.00,0013.82
2021-08-29 18:47:00,,0831.5,4.99,0.00,29.5,26.1,00.0,38.7,30.9,30.4,0001.7,0026.61,0015.04,0013.83
2021-08-29 18:48:00,,0831.6,5.00,0.00,29.5,26.4,00.0,38.6,31.0,30.7,0001.6,0025.91,0015.05,0013.85
2021-08-29 18:49:00,,0831.5,5.01,0.00,29.4,26.9,00.0,38.6,31.0,30.2,0001.8,0025.67,0015.06,0013.87
2021-08-29 18:50:00,,0831.6,4.99,0.00,29.4,27.3,00.0,38.6,31.1,30.4,0001.6,0026.46,0015.05,0013.88
2021-08-29 18:51:00,,0831.5,5.01,0.00,29.5,27.7,00.0,38.6,31.2,30.7,0001.4,0026.61,0015.05,0013.90
2021-08-29 18:52:00,,0831.5,4.99,0.00,29.5,27.9,00.0,38.6,31.3,30.5,0001.4,0027.20,0015.03,0013.91
2021-08-29 18:53:00,,0831.5,5.01,0.00,29.5,28.2,00.0,38.6,31.3,30.2,0001.4,0027.45,0015.00,0013.91
2021-08-29 18:54:00,,0831.5,4.99,0.00,29.6,28.4,00.0,38.6,31.4,30.1,0001.3,0025.85,0014.98,0013.90
2021-08-29 18:55:00,,0831.4,5.00,0.00,29.6,28.5,00.0,38.6,31.5,29.9,0001.1,0024.70,0014.98,0013.89
2021-08-29 18:56:00,,0831.4,5.00,0.00,29.6,28.7,00.0,38.6,31.5,30.0,0001.1,0025.39,0014.96,0013.87
2021-08-29 18:57:00,,0831.4,5.00,0.00,29.7,28.8,00.0,38.6,31.6,30.2,0001.0,0026.56,0014.88,0013.85
2021-08-29 18:58:00,,0831.3,5.00,0.00,29.7,28.9,00.0,38.7,31.6,30.1,0001.0,0026.35,0014.84,0013.86
2021-08-29 18:59:00,,0831.2,5.01,0.00,29.7,27.9,00.0,38.7,31.3,30.3,0001.1,0026.76,0014.88,0013.86
